Theta_e
309 309 309 309 308 308 308 308 308 307 308 309 308 308 309 310 306 302 310 313 311 311 313 316 320 326 328 328 333 337 339 341 344 346 346 346 347 348 348 351 352 353 353 354 355 356 356 357 357 358 358 357 356 356 357 357 358 358 359 360 358 357 356 355 356 357 357 358 360 360 360 359 358 356 354 354 355 356 355 354 352 351 350 348 348 348 350
308 308 308 309 308 308 308 308 308 309 309 309 309 309 310 309 310 310 310 312 311 313 314 316 319 324 324 329 338 342 341 340 343 343 343 344 347 347 347 349 351 353 355 356 356 356 356 356 356 357 357 357 357 357 357 358 359 360 359 357 356 356 355 355 357 359 358 359 360 361 360 361 360 360 358 357 356 356 357 357 357 356 354 351 348 347 348
306 308 309 308 308 308 307 308 308 308 309 309 309 309 310 311 310 311 312 313 312 320 329 332 336 334 337 338 335 334 339 341 340 341 341 344 346 346 348 351 351 352 354 355 356 356 356 357 357 357 358 358 359 359 359 358 358 359 359 357 356 356 355 357 357 359 359 358 359 359 360 361 361 362 360 359 357 357 357 357 358 359 355 354 352 348 348
304 307 307 307 307 307 307 307 308 308 307 307 308 308 310 310 309 312 313 310 310 318 329 332 337 335 332 329 331 335 339 340 341 340 342 342 343 345 349 351 351 352 354 354 355 355 356 357 358 358 358 358 358 357 358 358 358 358 358 357 356 356 357 357 356 357 357 358 358 358 358 358 359 362 364 363 360 358 357 355 357 357 357 356 355 353 354
303 307 308 306 306 306 303 305 308 309 309 310 310 312 312 313 312 311 307 308 314 320 329 326 331 330 330 328 330 333 339 341 341 341 340 341 341 343 347 348 349 351 352 354 355 356 357 359 358 359 360 359 357 358 357 358 359 358 357 356 357 356 357 357 357 356 357 356 357 357 357 357 357 360 362 363 363 361 359 358 357 356 358 357 356 354 352
303 307 306 307 304 297 299 311 313 312 309 309 309 310 312 315 314 313 314 321 327 328 325 318 325 328 330 330 334 337 340 340 340 341 340 339 340 342 344 347 349 351 351 352 355 357 358 359 359 358 357 356 357 358 358 359 357 357 357 357 356 355 356 356 358 359 358 358 357 358 358 357 357 358 358 357 358 361 361 361 359 357 356 357 357 358 356
303 307 306 301 297 299 315 316 316 314 313 312 311 312 313 315 317 315 317 319 322 327 324 322 325 330 334 333 341 340 339 341 339 339 340 340 341 342 344 348 348 350 351 353 356 358 359 359 359 356 355 356 357 356 357 356 356 356 356 356 357 356 355 355 356 356 355 356 355 356 356 356 357 357 357 356 356 357 357 357 356 356 357 357 357 358 358
308 305 302 295 298 312 312 314 315 318 315 314 312 311 313 316 316 316 316 317 325 327 331 335 341 340 338 340 342 342 345 341 336 335 338 341 341 343 346 348 351 351 352 354 355 356 360 360 357 355 355 356 354 355 356 355 356 355 355 355 354 355 355 355 355 356 355 354 354 354 354 355 355 356 357 359 356 358 358 357 358 358 358 358 358 357 358
302 303 301 301 311 308 309 308 313 312 311 313 311 306 311 318 318 317 317 323 328 327 330 332 336 337 334 333 336 340 340 343 337 335 336 338 340 343 347 347 348 350 354 353 356 359 359 357 355 353 354 354 353 352 352 353 353 353 352 351 351 352 351 352 352 353 353 353 352 352 352 352 352 353 354 356 358 360 358 359 360 359 358 358 359 357 358
307 302 300 301 301 299 305 311 316 317 318 318 316 312 310 316 317 319 320 324 328 331 332 333 335 337 326 320 329 337 338 341 340 339 340 340 343 342 344 347 348 352 353 355 356 355 356 355 354 354 354 353 353 352 351 352 351 350 350 349 351 350 349 351 351 352 353 352 350 350 352 351 350 352 353 355 355 357 356 356 357 359 358 358 358 359 358
304 304 300 299 298 302 312 313 315 318 320 316 319 311 306 316 317 320 321 323 329 331 329 332 336 324 318 318 324 336 337 339 341 340 340 341 341 343 346 347 349 350 353 353 353 356 355 352 352 353 354 352 351 350 350 350 349 349 349 349 348 348 349 351 351 351 352 352 351 351 351 351 351 350 351 352 354 356 356 356 355 357 357 356 357 357 357
305 303 300 299 304 305 313 315 316 316 319 317 314 301 302 314 317 321 323 322 326 330 333 334 331 321 315 316 328 334 337 339 340 340 340 340 342 343 344 345 349 354 357 355 352 353 353 352 353 353 352 351 350 348 348 349 347 347 348 348 350 349 349 349 350 350 351 350 350 350 350 350 351 350 350 350 351 353 355 354 353 353 355 355 355 358 357
304 304 302 304 305 314 317 316 319 317 317 315 304 298 307 321 322 325 324 324 330 334 336 332 324 325 332 335 337 343 340 342 342 342 343 344 344 343 344 347 354 352 351 349 348 352 354 352 351 352 351 350 348 347 347 346 346 349 351 351 349 348 348 347 346 346 347 347 347 348 347 347 349 348 348 347 348 349 348 350 350 351 353 353 353 354 356
303 304 301 301 306 315 317 321 318 319 314 304 302 320 326 324 327 327 325 325 331 337 338 332 327 337 344 348 347 344 346 346 349 348 347 345 345 346 351 352 350 348 345 351 352 352 353 350 350 350 349 348 347 347 346 346 347 349 347 347 346 347 345 345 345 345 345 346 345 345 346 345 345 345 347 346 346 346 347 346 346 347 350 352 353 353 356
306 306 302 299 295 318 319 319 315 318 310 315 320 326 328 322 328 327 326 328 333 336 336 336 339 337 339 340 341 345 347 349 348 348 347 348 348 348 349 349 349 346 346 347 350 351 349 348 349 348 348 346 346 346 345 346 346 347 346 346 346 345 344 343 344 344 344 343 343 343 343 344 343 343 344 344 344 344 344 345 345 345 346 348 349 351 354
303 303 301 300 315 318 323 320 315 320 326 326 329 325 327 326 326 327 328 330 332 331 337 336 332 335 339 342 344 345 346 346 348 348 348 348 350 347 346 346 346 345 346 349 350 349 348 349 349 347 347 346 345 346 346 346 346 346 346 346 346 344 343 342 342 342 342 341 342 343 341 342 342 342 341 342 343 343 343 343 342 343 345 346 346 348 349
308 309 311 316 322 323 324 325 323 327 328 329 329 328 326 326 327 330 331 332 335 335 338 335 334 333 335 338 339 342 344 345 345 346 346 346 346 344 344 343 348 348 347 351 349 347 347 347 348 348 348 345 345 345 345 346 346 346 345 344 343 341 340 340 341 341 340 341 340 340 340 340 339 339 338 338 339 340 340 340 340 340 341 342 343 344 346
317 319 320 322 323 323 324 325 327 326 328 331 330 329 328 330 331 329 331 336 336 337 339 334 332 332 333 335 336 339 341 343 345 346 346 345 345 345 346 349 353 356 355 353 351 347 345 346 346 347 347 347 345 345 346 347 346 345 344 343 341 340 340 340 339 340 338 339 338 339 339 339 339 338 338 337 337 337 338 339 340 338 339 339 338 339 338
310 305 321 320 320 323 324 325 329 331 332 333 332 333 334 333 332 330 330 335 337 339 343 337 339 339 340 341 342 344 345 346 346 344 346 345 345 345 345 351 354 352 349 346 347 347 345 344 344 344 346 344 347 347 346 345 344 345 343 342 341 340 340 339 340 339 339 339 338 337 337 338 338 337 337 337 336 335 335 335 336 336 337 337 338 338 336
312 315 319 320 323 326 327 327 327 329 331 333 336 335 337 336 335 332 335 334 337 341 338 339 337 333 336 341 344 344 346 345 345 346 346 347 347 349 351 353 351 348 346 345 345 345 344 343 344 344 344 345 346 346 344 344 344 344 342 342 340 339 338 338 338 338 338 334 337 336 335 335 333 334 335 336 334 332 330 331 332 334 335 335 334 336 336
316 320 321 321 324 324 324 325 328 330 331 333 335 335 336 336 335 335 336 336 336 336 336 337 333 331 332 334 335 335 340 342 343 346 347 350 352 352 352 352 351 348 348 347 347 346 343 343 344 345 346 345 346 345 346 346 346 343 341 339 339 338 338 337 337 338 337 337 336 336 334 332 328 326 327 330 332 332 330 327 325 326 329 333 335 336 336
312 315 318 321 316 316 321 322 326 330 333 334 334 334 334 337 338 336 334 335 337 338 339 338 333 332 333 332 333 331 339 341 345 348 350 349 349 352 353 352 352 351 350 349 347 345 343 344 344 345 346 346 346 345 346 346 346 344 341 340 338 338 338 337 336 336 336 336 336 336 334 332 328 321 310 303 310 323 326 316 306 300 305 323 324 334 335
312 319 323 327 326 324 325 326 329 331 334 334 333 333 333 334 336 337 335 335 336 337 339 341 334 339 340 339 336 335 335 342 347 347 348 347 349 350 351 350 350 349 349 349 347 345 343 344 344 345 346 346 347 347 347 346 346 345 342 340 339 337 337 337 336 336 335 335 337 337 336 334 334 330 326 319 298 299 306 306 301 297 297 298 301 312 330
320 325 324 327 328 324 326 329 331 331 336 332 331 333 334 335 336 336 336 336 336 336 336 338 340 340 339 339 336 336 337 341 347 347 347 346 348 349 349 348 349 348 348 348 346 344 344 344 344 345 345 346 347 347 347 347 346 346 344 341 339 337 337 337 336 337 336 336 336 336 336 335 335 334 334 331 323 301 298 302 301 297 297 296 296 301 309
322 327 328 330 330 329 329 331 333 333 334 332 330 332 334 335 337 338 338 338 338 336 333 334 338 339 340 340 340 341 339 343 345 347 349 349 349 346 344 345 348 348 347 347 346 344 344 344 344 344 344 346 347 345 348 347 346 344 343 341 338 337 337 336 336 335 335 336 336 336 335 335 334 335 334 334 333 328 316 299 299 299 297 297 297 297 298
327 329 332 333 332 329 329 330 330 334 335 335 334 334 334 336 337 338 339 341 338 336 338 341 340 342 343 343 342 343 344 345 348 348 348 347 348 347 344 344 345 347 347 347 344 343 343 343 343 343 344 345 347 347 345 346 345 344 343 341 341 339 339 338 337 335 335 335 335 336 336 336 336 336 335 335 334 335 333 325 317 307 301 297 297 300 297
331 333 331 329 326 325 330 328 326 332 332 334 334 334 335 335 334 333 337 341 341 340 339 340 343 346 348 346 344 343 345 347 346 348 348 346 346 346 345 346 345 346 345 345 344 343 342 344 343 344 343 344 348 347 346 345 344 344 342 342 342 338 335 338 339 336 336 336 335 335 334 335 335 334 333 334 336 335 334 335 334 331 327 320 305 297 308
330 331 331 324 322 324 326 332 333 332 332 332 334 334 336 333 330 330 331 337 340 340 341 343 342 344 344 346 346 344 344 345 346 348 347 344 346 346 347 346 346 345 345 344 343 343 342 342 342 342 343 345 347 348 346 344 343 343 342 341 340 337 339 336 339 337 336 335 335 334 334 336 336 334 334 335 334 334 331 333 332 330 325 320 316 306 300
330 330 331 332 330 329 333 334 331 331 331 332 331 330 329 328 328 328 328 331 333 335 335 339 344 346 344 345 346 345 343 343 347 348 349 350 347 347 348 348 346 345 345 342 341 343 343 343 342 342 343 346 346 347 345 343 342 342 341 338 337 336 338 338 338 337 336 336 335 334 333 333 335 334 334 334 334 333 333 332 330 329 327 323 321 318 314
331 332 330 330 332 330 327 327 327 328 328 330 330 330 331 330 328 330 331 331 332 332 336 340 340 341 344 345 346 347 346 346 347 348 349 349 349 349 346 346 345 345 344 342 342 342 342 341 342 342 343 345 346 346 344 344 342 342 342 340 338 337 337 338 339 337 337 335 334 330 332 334 336 335 334 334 335 333 331 330 329 327 327 327 324 322 318
330 332 331 330 328 327 326 327 329 328 328 328 329 329 329 331 329 330 332 334 335 334 339 341 343 343 343 343 344 345 345 345 347 347 348 349 350 349 348 347 341 339 340 341 343 342 342 342 341 342 344 345 345 346 345 343 342 341 341 340 339 334 332 333 335 338 336 335 333 333 333 334 334 334 333 332 332 331 330 329 328 328 327 327 326 324 319
326 327 327 327 326 326 327 329 328 327 327 326 326 327 328 327 329 332 334 334 335 336 338 338 340 342 344 346 347 347 348 348 348 347 346 347 347 348 348 346 345 341 341 343 344 343 343 342 342 343 346 345 344 345 345 344 344 341 340 338 339 339 335 331 334 334 336 335 334 334 334 333 332 333 333 332 332 332 330 329 328 328 327 326 325 324 320
326 323 323 324 325 325 326 327 327 326 327 328 330 333 336 336 337 337 338 338 338 340 340 341 342 345 347 348 348 348 347 348 348 345 344 344 346 347 347 347 346 345 344 345 345 345 343 341 341 342 344 343 343 343 344 345 343 342 342 340 340 340 339 332 333 336 336 335 335 335 335 334 334 333 333 333 333 333 332 328 330 329 328 327 326 324 321
327 325 324 326 327 325 324 326 328 328 329 330 333 335 335 335 336 336 336 336 336 337 338 339 340 343 345 345 346 345 344 343 342 341 344 345 345 346 347 347 346 345 345 346 345 344 343 343 343 343 342 342 342 341 343 343 343 343 343 341 340 338 338 337 334 336 334 333 336 336 337 336 336 334 333 333 333 332 331 331 329 330 328 327 327 325 315
334 330 330 326 326 328 328 328 329 327 327 328 331 333 334 334 334 333 334 334 334 337 340 341 342 341 342 343 342 342 342 341 341 341 342 342 342 343 344 343 345 345 346 345 345 343 344 344 344 343 342 340 341 340 340 340 339 340 341 340 340 336 337 336 336 336 333 333 334 336 336 335 335 335 334 334 333 334 332 331 330 327 329 328 326 324 319
334 333 331 332 332 330 330 330 331 333 333 333 332 332 332 333 334 334 335 335 337 338 340 341 341 341 341 341 340 340 340 340 341 342 343 343 343 342 343 341 340 340 341 343 346 346 345 345 343 343 343 341 340 339 338 339 340 340 341 338 336 336 336 335 336 335 334 334 333 333 334 335 334 335 334 335 334 334 332 332 331 329 328 328 328 325 321
335 335 333 331 331 333 332 335 335 334 333 333 334 334 333 334 334 336 337 338 338 338 339 339 339 338 338 340 340 340 341 341 340 341 342 343 343 343 342 341 341 336 335 336 340 343 345 345 344 342 342 341 341 341 342 341 341 341 339 338 337 336 334 334 335 334 334 334 333 334 333 332 334 334 334 333 333 332 332 332 332 330 328 328 326 327 323
334 335 334 332 331 329 331 334 334 335 334 334 333 333 333 333 335 336 337 337 337 338 339 339 338 338 339 339 339 338 339 340 340 341 343 343 343 341 339 339 337 336 334 338 342 342 342 342 340 342 344 342 342 341 342 343 343 340 339 338 336 335 333 331 331 331 331 333 332 334 334 333 332 332 332 332 332 333 331 331 330 329 330 328 328 327 325
332 332 332 331 329 327 327 331 335 335 334 333 332 333 334 334 335 336 336 336 336 337 338 338 340 338 335 335 334 336 338 339 340 340 340 341 342 339 338 339 339 341 339 342 342 341 342 341 344 345 345 345 345 343 345 343 341 341 339 340 338 337 335 334 331 330 330 333 331 331 332 331 332 334 333 333 332 330 329 329 329 330 328 329 327 327 327
329 328 328 328 327 326 326 329 331 331 332 334 333 332 333 333 333 334 334 334 334 335 336 337 336 334 334 334 334 335 337 339 339 339 339 339 339 339 338 338 340 340 339 336 341 341 339 337 340 344 345 347 346 345 343 342 340 340 341 339 338 336 336 335 335 331 330 331 330 330 330 330 331 332 331 331 334 331 331 331 331 330 330 329 330 329 328
329 329 329 326 324 325 325 327 327 331 332 333 334 335 335 333 333 333 332 333 335 336 336 335 333 333 333 334 335 335 334 334 335 335 337 337 335 334 332 333 336 339 339 339 340 341 338 338 341 343 342 344 345 341 342 342 340 341 341 340 338 337 336 335 334 334 333 330 329 330 329 330 330 329 328 329 331 330 330 331 330 331 332 330 329 330 331
330 331 329 325 323 323 326 328 329 330 332 335 335 337 337 336 334 333 333 334 335 335 335 335 334 335 334 334 334 333 334 335 335 335 336 336 334 331 332 333 337 338 337 337 337 338 340 340 340 337 345 344 342 337 334 338 341 340 340 340 339 337 336 334 333 334 335 334 333 331 330 330 330 330 330 330 329 328 330 329 329 330 332 331 331 331 330
330 328 327 327 327 327 327 328 329 330 330 333 336 337 338 337 336 335 333 333 333 333 333 334 333 333 334 334 333 333 333 335 335 334 335 334 335 335 333 334 337 339 336 337 338 340 340 340 338 339 336 335 337 336 336 336 338 339 339 340 338 338 337 336 336 335 335 336 335 335 334 333 331 330 329 330 330 330 330 330 329 328 328 330 332 331 331
327 327 328 328 325 327 329 330 330 330 329 330 333 334 334 335 336 335 333 333 333 332 332 332 332 332 332 333 333 332 333 334 335 335 334 334 335 335 336 336 340 338 336 334 338 338 335 335 336 333 334 332 333 333 336 338 338 337 337 337 338 337 337 337 337 336 336 335 334 336 335 332 333 334 334 331 329 329 330 330 331 331 330 330 330 330 331
327 329 328 326 326 327 328 328 328 327 329 330 331 333 333 334 335 335 334 333 331 330 330 330 330 329 330 330 331 331 332 332 331 331 330 328 327 329 333 333 335 335 335 335 337 334 334 332 329 329 331 329 330 332 338 339 338 336 337 337 337 336 336 336 336 336 335 336 335 335 334 335 335 335 335 333 332 332 332 331 333 332 332 332 331 330 330
325 326 326 324 325 326 329 329 329 330 329 328 328 330 332 332 332 333 333 331 330 328 328 328 328 329 330 330 330 331 332 331 330 331 331 330 327 329 330 329 330 330 332 333 332 329 328 325 325 325 327 329 330 335 337 335 334 335 336 336 336 333 335 335 334 335 335 334 334 335 336 337 336 336 335 335 335 335 333 331 333 334 335 333 332 332 332
324 323 325 326 327 328 328 328 328 328 327 326 325 326 329 331 330 330 330 330 329 329 329 328 328 328 329 329 328 328 327 328 330 329 330 330 330 330 329 327 326 327 330 331 328 324 323 323 322 323 324 329 333 335 333 333 334 332 332 333 332 333 333 334 335 333 335 334 332 330 330 329 332 333 332 332 335 333 332 332 333 334 334 334 333 333 331
324 324 325 326 327 327 328 327 326 325 325 324 326 327 329 329 329 328 329 329 329 329 328 328 327 327 328 327 328 328 327 326 324 325 327 327 328 329 329 327 324 324 326 329 327 324 321 321 320 320 322 325 327 328 328 328 328 328 330 330 331 331 331 332 331 332 332 331 331 333 332 333 333 331 331 331 332 332 332 332 331 332 333 334 335 334 335
326 326 326 327 326 326 326 325 325 325 327 329 329 329 330 329 329 327 326 326 326 326 326 327 326 326 326 325 325 325 325 325 324 321 325 325 324 324 325 325 323 322 323 326 327 326 322 320 319 318 321 325 325 324 324 324 324 324 324 325 326 326 327 325 326 326 327 328 329 330 331 331 331 333 332 331 330 330 329 330 331 332 333 333 332 335 335
327 327 326 326 326 327 327 326 324 326 327 327 327 327 327 327 325 326 325 324 324 324 324 324 324 324 323 324 323 324 324 323 323 323 324 323 322 322 321 321 321 320 319 322 323 322 322 321 320 319 321 324 324 322 321 321 322 322 322 322 322 324 323 321 320 320 324 326 326 325 326 326 328 328 328 329 329 329 330 330 330 327 321 324 327 328 330
326 325 325 325 325 328 330 331 329 328 327 326 329 327 327 326 324 323 324 323 323 321 320 321 320 320 320 320 320 320 320 322 321 320 319 319 319 318 318 318 319 317 318 317 318 318 319 320 318 318 319 320 320 319 318 318 320 320 319 320 320 321 321 320 321 322 323 323 323 324 325 325 325 326 327 326 326 327 327 328 328 329 330 329 330 330 331
326 326 326 328 329 329 329 328 329 328 327 326 326 325 324 324 323 322 320 318 320 319 318 318 316 317 317 317 317 317 318 317 316 316 316 316 315 315 316 315 315 315 315 315 316 316 315 315 314 314 315 315 316 316 317 316 317 318 318 318 317 318 319 319 321 320 321 322 322 323 323 324 325 324 324 325 325 325 325 327 327 328 327 328 329 329 330
Wind_Speed
17 16 5 6 7 9 9 12 13 15 14 14 14 13 10 7 8 4 6 7 9 5 3 10 12 10 10 10 10 9 8 8 7 8 8 8 7 7 7 6 6 6 7 7 8 8 8 9 10 10 9 9 9 9 9 9 9 9 9 9 10 10 9 10 10 9 8 8 7 8 9 8 9 10 10 9 9 10 10 11 11 12 14 14 14 15 14
14 13 8 7 9 8 8 9 8 11 14 14 14 13 12 11 10 8 4 6 9 7 4 4 8 11 10 9 8 7 8 9 8 8 8 8 7 7 7 7 6 6 6 6 7 7 7 8 8 8 7 7 8 9 9 9 10 10 10 11 11 11 11 11 9 8 8 7 7 8 8 9 9 9 10 10 9 9 10 10 10 10 11 13 14 15 14
11 12 10 9 11 10 11 10 10 10 11 13 14 13 10 10 10 7 8 6 7 3 4 5 6 7 8 10 10 9 8 9 9 8 8 7 7 6 6 6 6 6 6 6 6 6 6 6 7 6 6 6 6 7 7 8 8 8 9 9 9 10 11 11 10 9 8 8 8 9 9 9 9 9 10 10 10 10 11 11 10 10 11 12 12 13 14
9 11 11 11 11 12 12 12 11 11 12 12 11 11 9 10 11 10 6 6 6 4 5 5 5 8 10 11 11 9 8 9 9 8 8 8 7 7 7 7 6 6 6 7 6 6 6 6 6 6 6 6 6 6 6 6 6 6 7 8 9 9 9 10 10 11 10 10 10 10 10 10 9 8 8 9 10 11 11 12 11 10 11 12 12 12 11
9 8 10 11 11 10 12 13 13 12 11 11 9 10 9 12 10 8 7 9 5 2 6 6 7 10 10 11 11 10 9 9 9 8 8 8 8 8 7 7 7 6 6 6 6 6 5 5 5 5 4 5 5 5 6 5 5 6 6 7 7 7 8 8 9 9 10 10 10 10 10 10 9 8 9 8 9 10 12 12 11 11 11 12 12 13 13
7 8 8 8 9 12 11 6 12 13 13 12 12 11 12 13 11 7 7 3 3 6 8 10 10 11 11 10 9 9 10 10 9 8 8 7 8 8 7 7 7 6 5 5 5 5 5 5 5 4 3 3 3 3 3 4 5 5 5 6 6 7 8 8 8 7 8 9 9 9 9 10 9 9 9 11 11 10 9 10 11 12 13 13 13 12 12
7 6 7 9 12 11 5 3 3 8 11 11 12 11 11 10 12 10 8 6 5 5 5 5 8 8 8 8 10 9 10 9 9 9 8 8 8 8 8 8 7 6 6 5 5 5 5 5 4 4 3 3 3 3 4 5 5 5 5 6 6 6 7 6 6 7 8 8 8 9 9 9 9 10 11 11 12 10 10 11 11 12 12 12 12 12 13
2 6 9 10 10 5 5 5 5 5 3 7 9 11 10 11 12 12 11 7 5 6 5 4 5 6 8 7 7 8 8 8 8 9 8 9 9 9 8 8 7 7 6 6 6 5 5 5 5 3 4 3 3 3 3 3 3 4 3 4 5 5 5 5 6 5 5 6 7 8 8 8 9 9 9 9 11 10 10 10 10 10 11 11 12 12 12
9 9 10 9 6 5 7 5 8 9 9 10 11 10 10 9 9 11 10 6 6 6 6 6 6 7 7 7 6 6 7 7 7 8 8 9 8 8 7 8 7 5 5 6 6 6 5 5 4 3 3 3 3 2 3 2 2 2 2 3 3 2 3 3 5 5 5 5 6 7 8 9 9 10 10 10 10 8 9 9 9 9 10 11 11 11 12
9 9 9 10 6 10 7 4 5 8 1 6 10 10 7 8 11 11 10 8 7 8 7 7 7 7 7 8 6 7 9 8 7 6 7 8 7 7 7 6 7 7 6 6 7 6 7 6 4 4 3 3 3 3 3 2 2 2 2 2 1 1 2 2 4 5 5 6 6 7 7 8 8 9 9 9 8 7 9 9 9 9 9 10 11 10 11
8 10 11 11 11 6 4 8 5 5 2 3 4 7 9 6 10 8 10 9 9 9 10 10 9 7 6 5 5 10 11 10 9 8 8 8 8 8 8 7 8 8 7 6 7 7 6 6 4 4 3 3 3 3 2 2 1 2 1 1 1 2 1 1 2 3 4 4 5 5 6 5 5 6 7 8 7 6 8 8 9 9 10 10 10 10 12
8 10 11 11 8 3 3 4 4 2 3 3 7 9 9 12 14 15 13 11 10 10 10 11 9 9 7 7 7 13 14 11 10 9 9 9 9 8 8 8 7 8 8 8 7 6 6 6 5 4 3 2 2 1 2 1 2 2 3 2 2 1 2 1 0 1 2 3 4 4 4 5 4 5 5 5 7 7 6 7 8 8 8 9 10 9 10
9 11 10 9 5 6 4 5 3 2 3 5 9 11 2 2 12 12 12 10 10 10 11 10 9 4 5 8 12 11 13 11 9 9 8 8 8 8 9 9 10 9 8 6 6 6 6 5 4 4 3 3 3 2 2 3 3 2 3 3 1 1 0 0 1 1 2 3 4 3 3 4 3 3 3 4 4 6 6 7 7 8 9 9 9 9 8
10 9 12 10 3 4 4 5 3 3 6 9 10 3 4 7 5 10 11 10 10 10 11 10 6 8 11 12 12 14 13 12 11 9 10 9 9 9 10 11 8 8 7 7 8 7 6 4 4 3 3 2 2 2 3 3 3 3 2 2 2 3 2 1 1 0 1 1 2 2 3 3 4 4 3 4 4 5 5 5 6 8 9 7 7 7 7
7 7 9 6 8 4 3 6 1 1 7 2 4 5 5 3 4 8 9 8 8 8 8 6 9 12 13 14 14 13 13 13 12 11 11 10 10 10 10 9 8 7 7 7 7 6 4 3 3 3 3 3 3 3 3 4 3 4 4 3 3 2 2 1 0 1 2 2 2 2 3 4 5 5 4 5 5 5 6 7 7 8 8 9 8 7 6
6 8 10 4 4 3 4 4 1 3 4 4 4 5 3 5 2 4 6 5 6 8 8 9 10 12 14 13 14 13 12 12 12 11 10 10 9 9 8 7 7 6 6 7 7 5 3 3 2 1 2 2 3 3 4 4 4 3 4 3 2 2 1 0 1 1 1 2 2 2 3 3 3 4 4 4 4 4 4 5 6 8 9 9 9 8 6
4 2 4 5 2 3 3 3 3 4 5 4 4 4 5 5 3 3 1 3 4 7 9 10 11 11 13 13 13 13 12 12 12 11 11 10 9 8 8 8 6 5 5 8 7 6 4 4 3 2 2 2 3 4 4 4 5 4 4 3 3 2 1 0 0 1 1 2 2 3 3 3 4 3 3 4 3 3 3 3 3 5 6 6 6 6 5
4 4 4 2 3 3 4 3 3 5 4 4 4 4 5 3 4 3 2 2 5 7 9 11 10 10 13 13 12 12 12 11 11 11 11 10 9 9 8 8 7 6 7 7 7 7 5 3 3 2 2 2 4 5 5 5 4 4 3 3 3 2 1 1 0 2 1 1 2 3 3 3 3 3 3 3 3 3 3 3 5 5 3 2 3 3 3
4 2 2 2 5 4 4 5 4 3 5 5 5 4 3 4 4 3 1 1 3 7 7 10 10 12 12 12 11 11 10 11 11 11 11 10 9 8 7 8 8 6 5 4 5 6 5 3 2 3 2 2 4 5 5 4 3 3 3 3 2 2 2 1 2 2 1 1 2 3 3 2 2 3 3 3 4 5 5 6 5 5 3 2 2 3 2
2 5 3 5 6 6 6 6 7 7 7 7 7 5 3 3 3 2 2 3 5 7 9 10 13 13 13 14 12 11 11 11 10 10 11 10 9 7 7 7 6 5 4 3 4 4 4 3 2 2 3 3 5 6 6 5 4 3 3 2 2 2 2 1 1 2 2 2 2 3 4 4 4 4 4 4 4 5 6 6 5 4 3 2 3 2 2
7 7 5 6 6 9 10 10 9 8 7 7 7 6 5 4 3 3 3 2 5 6 7 10 12 11 11 12 12 11 10 11 10 11 10 9 9 8 8 7 5 4 3 4 4 5 3 2 2 3 3 3 4 4 4 5 4 4 3 2 2 2 2 2 1 1 1 2 2 3 4 5 7 6 5 5 4 4 5 5 5 5 6 5 3 5 2
6 4 4 3 3 4 7 10 10 9 9 8 6 5 7 7 6 4 5 8 7 7 7 5 9 10 9 10 9 12 9 9 11 11 11 10 10 9 8 7 6 6 5 5 5 4 2 3 3 4 4 3 3 5 5 5 5 5 3 2 2 3 2 2 2 2 2 2 2 3 4 4 5 6 5 6 6 5 4 8 8 6 4 4 6 7 5
5 6 5 5 6 7 7 7 7 7 8 9 9 8 7 8 7 6 6 7 9 9 7 6 10 11 11 11 11 9 8 9 9 10 11 10 9 9 9 8 7 6 6 6 5 4 3 3 4 4 5 4 5 5 4 4 5 6 5 4 3 3 2 2 1 1 2 2 2 2 2 3 3 6 5 5 8 8 6 6 7 10 11 12 13 12 6
8 6 6 5 4 5 6 8 6 6 5 9 12 11 10 10 9 8 8 7 7 8 7 6 9 11 11 10 11 7 7 9 9 8 8 8 8 9 8 7 7 7 6 6 5 3 3 3 4 5 5 5 5 6 5 4 4 5 4 3 1 0 1 2 2 3 1 2 2 3 3 3 2 1 2 5 5 6 6 9 13 13 14 13 12 11 10
5 5 5 4 3 3 3 5 7 7 6 9 10 12 13 13 13 12 12 12 12 12 10 6 7 10 11 11 10 9 8 8 8 8 8 7 8 8 7 6 7 6 5 5 4 3 4 4 4 5 4 5 5 4 5 4 4 4 4 4 3 2 1 0 1 2 2 2 2 2 3 3 2 2 1 1 2 6 5 6 14 17 15 14 13 12 11
3 3 2 2 2 3 3 5 7 8 6 5 7 8 11 13 13 13 13 11 10 14 13 11 6 8 8 9 9 8 8 8 8 8 7 7 8 7 7 7 6 6 6 6 4 3 4 5 4 5 4 4 5 5 5 4 4 2 3 3 4 2 1 2 2 1 2 2 3 1 1 0 0 2 1 1 1 1 5 6 5 13 15 15 14 12 13
3 1 2 1 4 7 7 5 5 5 7 7 7 6 7 10 12 11 11 12 12 13 12 4 6 7 7 6 7 7 7 8 7 5 6 6 7 6 6 5 6 6 6 6 4 4 4 4 4 4 3 3 5 4 3 3 2 3 4 3 3 5 3 3 2 2 3 2 2 2 2 2 3 2 2 2 1 2 2 1 3 4 4 7 11 14 8
2 2 3 4 5 5 5 5 4 4 6 6 5 5 5 7 8 11 11 10 10 11 11 10 9 6 6 5 5 5 6 7 6 6 5 6 5 5 6 7 7 6 5 5 4 5 5 5 5 5 4 4 4 4 3 4 3 4 4 4 3 2 4 4 3 2 3 2 1 2 2 2 2 2 2 2 2 2 2 2 3 4 5 6 6 8 12
4 4 3 4 4 3 1 2 5 7 7 7 6 4 4 6 7 8 10 9 7 7 8 9 7 6 5 4 5 4 3 4 5 6 6 6 6 7 7 7 6 6 5 5 5 6 5 5 5 5 4 4 4 4 4 5 4 4 5 6 5 4 4 3 3 2 3 3 3 2 2 2 3 3 2 2 2 2 2 3 3 4 5 6 7 7 8
4 4 5 4 4 3 4 7 7 8 8 7 6 7 6 6 7 8 8 8 6 8 8 8 8 2 1 3 6 5 5 5 5 5 5 5 6 6 7 6 6 6 5 5 5 5 5 5 5 5 4 5 5 5 4 5 4 5 7 6 4 4 3 2 3 3 4 4 3 4 3 3 2 2 3 2 2 2 2 3 4 4 5 5 6 6 7
2 4 5 5 5 4 5 6 5 6 6 6 6 6 6 6 6 7 8 6 6 6 6 7 7 6 3 4 5 6 6 6 5 4 5 5 5 5 5 5 4 4 4 5 6 6 6 6 5 4 4 5 5 5 5 5 5 6 6 5 5 4 7 4 3 3 5 5 5 5 5 4 3 3 3 3 3 3 3 4 4 4 5 6 6 6 7
3 5 5 4 3 4 5 4 5 5 5 5 5 7 6 6 6 5 5 4 4 4 4 4 4 5 4 3 4 6 6 5 5 4 4 4 4 4 4 3 2 3 4 5 6 6 6 5 5 4 4 4 4 5 5 5 6 6 6 6 5 6 7 6 5 4 4 5 5 5 5 5 4 4 4 3 3 3 3 4 4 5 5 6 6 6 7
2 5 3 2 2 1 3 3 3 4 4 6 7 6 7 7 6 7 7 6 6 6 5 5 4 3 2 3 4 5 6 6 6 5 4 3 3 3 4 3 3 3 4 4 5 6 5 5 4 4 4 5 5 5 5 6 6 5 5 5 5 5 7 7 6 4 5 5 6 6 6 5 5 5 5 4 3 3 3 4 5 5 5 6 6 7 8
4 2 4 2 3 1 1 2 2 2 5 7 6 6 7 7 7 7 7 6 6 6 5 4 4 3 2 2 4 3 4 5 4 4 3 3 3 3 4 3 3 4 3 3 4 4 4 4 3 4 4 4 5 4 5 5 5 5 5 5 5 5 5 6 6 5 5 5 4 4 5 5 5 5 5 5 4 4 4 4 4 5 5 5 6 7 9
3 3 4 3 0 1 2 1 2 5 5 3 5 7 6 6 6 7 7 6 7 6 4 4 3 3 4 4 4 4 4 2 3 4 3 2 2 3 3 4 4 4 4 4 3 2 2 2 3 4 4 5 6 6 6 7 6 5 5 5 4 4 4 5 5 6 5 5 5 5 6 6 5 5 5 5 5 5 5 4 4 5 6 6 6 7 8
4 3 3 4 4 3 3 5 6 5 5 6 6 6 6 6 6 6 6 6 5 5 4 3 3 3 3 3 4 4 4 3 3 3 3 3 3 4 4 4 4 5 3 3 2 2 3 3 4 3 4 5 6 7 6 6 5 4 3 4 4 4 4 4 5 5 5 5 5 6 6 7 6 6 6 6 6 5 6 6 5 5 5 7 7 8 8
5 5 5 5 5 6 6 5 5 6 6 6 6 5 6 5 5 4 4 4 5 5 5 3 3 3 3 3 3 3 3 3 2 2 2 2 2 3 4 4 4 2 3 2 3 2 2 3 5 7 6 6 6 7 6 5 5 4 4 5 4 4 4 5 5 5 6 6 6 6 6 6 7 7 7 7 6 6 6 6 6 6 5 6 7 9 9
6 7 8 8 9 7 6 6 5 5 6 7 7 6 6 5 5 5 5 5 5 5 4 4 4 4 4 4 4 4 5 4 3 3 3 1 2 2 2 2 2 3 2 1 2 2 2 1 4 6 6 7 6 7 6 8 6 6 5 5 5 4 4 5 5 5 6 6 7 6 7 7 7 7 7 7 8 8 7 7 6 7 7 6 7 8 10
7 7 9 9 8 6 2 4 5 6 6 7 6 6 6 6 6 5 6 6 6 5 4 4 3 3 3 3 3 4 4 4 3 2 2 2 1 1 1 2 2 2 2 1 1 2 2 3 5 5 5 5 5 6 4 8 8 6 6 5 5 6 5 5 5 5 5 5 6 6 6 6 7 7 6 7 7 7 7 7 7 8 7 7 7 8 9
8 8 7 7 7 7 6 3 5 5 5 5 6 6 5 6 6 6 6 6 7 6 6 5 4 4 3 3 2 3 3 2 2 1 1 1 1 1 3 3 3 3 3 1 1 0 1 3 5 5 4 4 4 4 3 6 8 5 6 6 6 6 6 6 5 5 5 6 6 6 6 6 6 6 6 6 6 6 7 7 8 7 8 8 8 8 9
7 6 6 6 8 4 3 2 4 5 5 5 5 5 4 5 6 6 7 6 5 6 6 6 5 5 5 4 4 4 3 3 2 2 2 1 0 1 1 2 3 2 2 3 4 2 2 4 4 3 3 3 4 1 2 8 5 5 6 6 6 7 7 6 6 6 6 6 6 6 6 6 6 6 6 6 6 6 7 7 8 8 8 9 8 9 9
7 7 9 7 7 3 3 3 3 6 6 5 5 4 5 5 6 6 6 5 6 6 6 7 7 6 6 5 5 4 4 4 3 3 3 3 3 4 3 3 4 3 5 4 6 5 4 4 4 3 4 3 2 6 1 4 5 4 5 6 6 7 7 7 7 7 7 6 6 6 6 7 6 6 6 6 7 7 7 7 8 8 8 9 9 9 9
7 8 6 5 1 1 3 3 4 6 7 6 5 5 4 5 5 5 5 5 6 5 6 5 5 5 5 5 5 5 5 4 4 4 4 5 7 6 4 3 3 3 6 5 5 4 3 4 5 5 9 7 6 9 6 5 5 5 6 6 7 6 6 8 7 7 7 7 7 7 7 7 7 7 7 7 7 7 7 7 7 8 8 8 9 9 9
5 4 4 4 4 4 3 4 4 5 6 6 6 6 6 5 5 6 6 6 7 7 7 6 6 6 6 6 5 5 5 4 3 2 1 4 6 7 7 5 4 4 7 6 4 5 6 6 7 10 11 11 10 10 6 4 4 4 5 6 6 6 6 6 6 6 6 7 7 7 8 8 8 7 8 8 8 8 8 8 8 8 8 8 8 8 9
3 4 4 4 4 3 3 4 4 5 5 5 6 6 6 7 7 7 7 8 8 8 8 7 7 7 6 6 6 6 5 6 6 7 5 4 4 6 8 8 7 7 8 10 5 7 8 9 12 14 11 11 10 10 4 3 4 4 4 4 5 5 5 5 5 5 5 6 6 6 7 7 8 8 8 9 8 8 8 8 8 8 8 8 8 9 9
3 3 2 2 3 4 3 4 4 3 4 5 6 7 7 8 8 8 8 8 8 8 7 7 7 7 7 6 5 4 4 6 7 7 7 6 6 5 7 8 7 8 10 10 8 9 8 13 15 13 11 9 10 6 3 3 3 3 3 4 5 5 6 6 6 5 5 5 5 5 6 7 7 8 8 8 7 8 8 9 9 8 8 9 9 9 9
2 2 3 3 3 3 3 3 2 2 3 4 5 6 6 7 7 7 7 8 7 7 7 7 7 7 7 7 7 6 5 4 4 6 6 5 4 5 7 9 10 11 8 7 7 8 8 10 11 12 12 12 11 6 6 6 6 6 5 5 4 3 4 4 4 5 6 6 7 8 8 7 7 7 6 7 8 8 8 8 8 8 8 8 9 9 9
3 3 3 3 3 2 2 1 2 3 4 5 5 6 6 6 7 7 6 6 6 6 6 6 6 7 7 7 7 7 7 7 4 6 7 6 6 6 6 7 10 15 10 4 7 11 12 11 12 12 10 9 7 7 7 7 6 7 7 7 7 7 6 6 6 7 6 6 5 5 5 6 6 7 7 7 7 8 7 7 8 8 8 8 8 9 8
2 2 2 1 2 2 2 3 3 4 4 5 5 5 5 5 5 5 5 4 4 4 5 5 5 5 5 7 7 6 7 7 7 6 6 6 6 6 7 8 12 13 10 7 8 6 11 10 11 13 11 8 7 7 7 7 7 6 6 6 5 5 6 6 6 6 5 6 6 6 6 7 7 7 7 8 8 7 7 8 8 8 8 9 9 8 6
1 1 1 2 1 1 1 1 3 4 3 3 4 3 3 2 3 4 3 4 4 4 4 5 5 5 6 6 6 6 6 6 6 6 6 6 7 6 7 7 8 11 12 8 8 8 9 12 13 14 12 8 8 7 7 7 7 6 6 6 6 5 5 5 6 5 5 5 5 6 6 6 6 6 7 7 7 8 8 8 8 10 11 8 9 10 11
1 2 3 3 4 5 6 6 5 3 3 4 5 5 4 4 4 4 4 4 3 4 4 4 5 6 6 6 6 6 7 7 7 8 7 6 6 7 9 7 7 8 9 9 8 9 9 9 10 11 10 9 8 8 8 8 7 6 6 6 7 6 6 6 6 6 6 5 6 5 5 5 5 6 6 6 6 7 7 8 8 8 9 9 9 9 9
3 3 3 4 5 5 5 6 5 4 4 3 3 3 3 3 3 4 5 6 4 3 3 3 4 6 7 6 6 6 6 7 6 6 6 7 7 6 6 8 7 7 8 7 7 8 8 8 9 10 10 8 7 7 8 9 7 7 7 7 7 7 6 6 6 6 7 7 7 6 6 6 6 6 6 6 6 7 7 7 7 8 8 9 9 9 10
Wind_Direction
238 250 244 190 214 228 222 209 198 200 202 206 216 207 216 186 228 243 173 228 238 242 253 151 189 209 182 175 169 171 161 151 146 147 155 163 164 168 173 174 180 186 186 188 189 189 191 193 197 198 196 196 198 205 213 216 214 214 213 213 214 205 207 220 219 221 227 230 227 228 228 231 234 243 246 242 237 235 228 232 230 230 231 233 233 231 230
233 229 220 219 236 208 215 228 224 210 203 208 216 225 216 208 219 243 229 224 242 225 242 241 171 177 200 154 146 146 155 158 154 161 166 167 168 171 171 167 170 173 169 172 177 183 187 193 196 199 202 203 204 210 214 217 221 223 224 227 225 222 220 221 220 218 219 223 226 224 226 228 232 233 237 239 240 238 240 236 239 240 239 237 237 237 234
236 231 216 220 233 236 231 218 221 222 220 220 222 235 227 225 234 210 232 229 243 150 96 87 84 124 116 141 157 163 158 159 162 168 168 165 167 163 156 151 158 152 159 162 166 175 181 185 188 189 195 200 204 213 220 221 223 223 220 221 221 222 224 223 223 220 218 224 228 228 224 226 228 232 234 233 232 234 237 238 239 240 243 243 241 243 242
229 216 216 214 221 228 238 228 214 216 218 224 217 228 217 223 220 218 202 235 249 160 140 123 155 154 160 160 164 162 166 167 166 172 165 166 164 161 153 151 153 157 162 165 168 172 171 174 174 178 183 189 196 208 211 218 221 218 217 219 222 221 224 226 224 222 223 220 221 223 226 227 228 230 229 228 233 234 233 232 230 234 238 240 244 244 243
232 191 207 209 204 216 224 223 216 211 212 228 220 226 223 224 227 211 214 231 216 203 167 171 168 180 176 174 174 166 164 166 171 171 170 164 165 159 156 156 160 165 166 169 171 163 160 160 166 165 171 180 188 187 196 203 209 210 215 221 224 228 229 232 230 226 225 226 228 229 228 232 234 227 227 227 224 226 231 234 233 232 232 235 236 237 240
216 152 200 185 201 215 218 215 214 202 217 205 214 208 210 212 215 220 232 100 94 161 187 203 176 186 182 179 168 165 163 165 170 172 168 165 160 158 160 158 163 160 165 168 166 163 153 154 158 160 178 194 176 175 190 193 210 212 213 213 216 222 225 229 231 231 226 224 227 227 228 231 227 227 226 228 230 230 229 226 229 232 234 232 233 236 237
215 154 167 196 212 218 99 62 113 201 220 210 221 220 217 205 208 219 219 195 176 148 194 209 190 180 163 166 149 150 162 168 166 167 161 160 162 158 159 162 165 164 164 162 155 154 149 136 125 132 153 174 166 179 197 201 207 218 218 223 219 222 228 230 235 236 238 236 236 234 235 236 234 232 236 238 234 231 231 231 229 229 230 232 232 232 232
152 195 203 220 209 99 119 105 114 87 195 212 220 223 212 206 209 213 229 221 166 160 157 126 120 133 135 126 136 140 150 173 169 169 162 163 163 164 165 166 163 168 169 169 166 148 125 131 139 164 146 158 175 188 197 211 209 223 239 238 236 228 223 225 233 239 244 249 247 247 242 243 241 238 236 237 239 234 233 237 238 239 237 236 234 231 230
220 217 207 220 77 171 139 153 170 173 193 184 199 219 194 203 212 218 225 182 147 153 160 144 148 143 147 152 139 149 156 170 178 173 168 165 167 159 159 159 163 164 154 157 134 128 124 125 133 146 117 160 187 187 201 199 219 214 235 249 263 269 285 271 255 248 242 247 247 246 247 246 247 246 243 243 243 239 238 235 235 233 239 239 238 237 234
231 228 220 220 216 238 197 205 163 174 73 218 208 230 219 187 218 217 220 195 156 157 153 152 144 161 170 191 157 166 161 162 155 145 140 147 147 147 149 143 138 147 140 129 134 137 130 127 131 131 152 168 179 188 177 170 200 203 214 227 224 282 255 250 251 244 239 237 237 240 242 241 247 253 252 249 250 248 248 244 235 229 227 237 240 245 246
207 219 226 224 231 224 7 110 120 135 83 180 134 216 231 189 259 240 214 191 166 171 165 154 164 158 204 199 164 158 161 160 156 145 142 140 144 139 142 143 141 138 135 135 132 130 131 129 134 140 148 162 181 181 174 151 219 234 201 107 159 213 223 222 235 241 246 244 246 249 255 256 257 262 266 267 271 268 258 251 247 245 241 239 237 236 240
211 225 222 225 222 178 114 69 63 65 170 162 190 225 229 178 184 208 207 194 175 173 165 160 174 194 174 223 156 171 158 157 153 150 146 140 141 137 133 126 127 119 120 130 140 129 129 121 130 136 146 158 152 162 125 127 186 204 174 151 137 119 90 67 301 297 306 295 291 293 289 279 275 271 284 284 277 271 263 259 263 260 255 245 245 249 246
210 231 229 237 192 97 39 19 354 116 159 210 212 222 237 92 169 184 188 184 169 165 164 176 183 195 113 130 148 149 143 140 145 142 140 140 135 133 128 123 129 134 145 143 127 126 114 124 133 142 158 153 163 161 164 185 196 127 95 86 85 50 320 245 355 352 338 335 321 321 319 312 311 293 284 285 286 273 273 273 268 253 251 257 255 253 249
214 207 236 232 201 62 317 346 302 178 175 196 221 39 319 284 240 177 179 171 166 172 176 186 178 118 122 119 120 129 136 131 129 129 128 131 126 119 116 127 141 138 125 112 112 107 108 128 136 143 158 155 152 160 179 180 134 89 125 123 148 132 122 113 87 12 284 251 261 279 277 280 288 283 273 264 263 268 264 257 259 265 261 253 254 255 253
236 218 233 228 222 97 358 337 232 275 244 61 14 323 327 318 253 173 168 169 164 179 173 164 120 131 130 134 133 130 133 133 134 134 133 128 129 126 132 142 139 141 131 128 111 107 124 134 139 157 157 165 153 177 161 116 129 141 142 149 142 142 138 137 39 358 15 343 331 316 316 318 307 305 303 290 281 273 266 259 254 256 261 258 251 249 253
224 206 222 237 32 360 5 333 324 88 9 346 341 335 326 8 15 174 164 172 175 179 164 149 142 132 127 128 132 130 130 132 131 131 130 129 128 139 142 137 144 139 121 114 110 109 112 111 140 97 160 178 177 193 139 134 161 141 142 136 137 136 135 51 315 23 44 339 13 334 3 345 346 347 346 339 323 311 302 280 273 264 252 259 259 256 253
270 314 36 58 48 354 356 332 344 312 330 330 321 307 303 300 23 15 249 157 170 181 160 151 145 140 135 134 137 136 134 136 136 134 135 132 138 137 135 132 129 121 118 119 123 126 127 143 134 156 178 192 172 160 131 156 153 157 151 156 161 160 183 39 262 157 57 27 27 18 16 26 22 15 14 359 345 341 305 303 296 283 290 299 295 284 258
125 103 31 58 93 23 6 5 7 331 346 347 324 324 318 0 336 341 335 70 160 169 166 153 157 142 134 132 131 130 136 134 128 127 127 130 131 131 128 127 122 113 115 121 125 122 127 135 142 162 206 209 178 145 162 162 164 147 151 147 152 164 172 154 149 167 174 101 70 50 27 46 47 33 14 1 10 341 292 230 217 219 225 268 298 325 336
204 147 132 92 56 50 33 14 20 21 20 355 342 334 326 343 332 330 158 261 165 158 157 157 141 128 127 120 117 119 125 126 130 132 130 130 135 136 135 126 131 135 141 133 128 131 130 144 156 161 185 204 126 142 161 165 154 146 170 163 172 194 176 176 148 154 188 181 133 87 39 39 55 47 27 19 27 13 355 348 334 328 298 246 194 185 243
216 109 102 85 79 68 42 24 19 17 10 6 359 358 344 329 334 328 102 172 168 157 163 159 149 141 136 130 129 133 132 133 131 129 132 134 131 129 127 136 142 139 138 123 123 123 116 127 175 212 170 176 145 158 162 175 163 165 179 199 186 167 180 173 187 182 157 158 244 106 69 48 38 28 35 25 37 31 15 359 336 320 317 339 319 315 252
94 114 121 105 101 75 57 50 41 31 14 359 9 17 21 30 45 55 87 89 131 157 155 168 157 143 135 135 138 140 141 136 137 134 134 135 132 136 140 136 144 129 127 116 118 120 114 140 174 199 196 173 158 171 178 160 163 167 152 176 223 185 179 185 163 232 213 172 132 126 114 92 71 50 27 18 21 37 39 4 347 333 326 324 10 335 54
170 122 95 347 212 96 56 42 35 28 24 29 37 39 47 43 43 50 91 104 106 112 116 155 166 129 124 129 141 137 150 144 136 137 137 139 140 139 135 139 133 120 119 125 123 121 110 155 180 200 179 171 185 183 171 168 164 152 160 177 186 207 210 188 180 193 215 178 156 174 143 129 118 95 58 47 19 2 30 24 8 347 348 354 337 335 48
104 81 76 50 71 84 47 44 34 33 29 42 49 47 54 58 55 58 81 95 103 95 83 120 134 123 119 121 123 133 144 139 143 145 144 143 144 144 142 140 138 136 129 124 125 124 133 167 194 199 185 189 188 188 186 176 170 158 171 179 201 188 212 219 83 223 194 199 169 156 139 140 144 142 132 81 58 54 50 44 21 18 24 21 13 16 14
79 54 66 44 48 68 69 57 42 45 27 50 57 57 61 61 61 66 69 69 77 77 73 74 102 108 108 110 101 110 143 144 141 144 148 148 141 142 146 144 143 139 136 134 134 131 144 181 194 209 196 192 192 194 193 193 180 174 174 163 197 195 274 130 140 237 198 201 199 164 157 158 165 179 174 136 112 55 65 80 64 43 39 31 22 31 47
46 15 30 32 21 30 72 72 53 58 48 44 58 57 53 55 55 58 57 52 54 57 39 16 81 95 105 105 123 157 160 144 142 133 127 127 136 148 147 145 146 145 142 135 143 142 162 189 200 216 201 195 194 201 188 201 200 183 168 157 154 162 168 238 188 168 243 191 228 195 173 173 176 195 200 271 132 133 84 58 85 70 45 40 36 33 51
355 11 16 18 9 41 73 115 63 55 88 94 78 74 74 68 58 55 64 67 70 70 58 338 18 73 91 114 140 135 131 126 127 135 143 145 149 156 154 151 145 139 141 139 144 151 164 186 201 215 206 193 190 199 200 200 209 173 181 176 183 195 180 181 171 186 200 210 215 184 156 95 239 177 163 95 79 32 152 154 128 96 75 49 36 50 52
22 27 330 343 73 60 51 63 78 56 68 86 100 96 88 89 82 66 52 59 64 71 80 31 26 52 62 81 108 123 124 123 133 143 143 151 153 155 142 140 144 141 143 140 141 146 161 183 206 222 218 194 192 191 198 168 175 195 203 203 178 103 58 335 183 173 200 187 191 167 176 188 165 155 127 138 113 72 35 28 55 43 56 62 40 26 48
46 55 16 56 71 50 60 70 69 71 78 76 87 104 120 121 101 92 76 56 55 68 69 52 31 31 61 57 65 93 127 136 130 133 139 139 135 137 146 144 146 148 136 136 141 149 179 191 207 216 202 196 192 197 176 149 184 216 209 202 204 185 159 196 197 165 177 175 167 182 203 175 137 128 160 164 141 103 89 97 105 115 88 70 72 68 65
63 69 75 68 72 73 75 80 85 82 82 76 71 64 66 64 77 95 100 99 90 79 71 69 41 20 42 63 72 64 75 110 113 123 115 115 133 138 142 146 143 140 144 148 148 161 185 195 210 216 200 194 203 192 174 153 170 202 193 200 196 194 183 170 164 174 156 153 165 199 205 219 166 150 164 153 135 131 128 111 106 112 115 119 119 102 87
62 96 110 110 110 103 89 71 62 62 65 67 68 73 76 92 83 71 76 93 103 99 108 107 102 120 195 95 96 96 87 85 89 102 120 127 132 140 144 147 142 142 152 152 164 173 187 193 206 215 202 185 192 187 174 169 176 187 196 207 198 196 195 154 154 152 155 163 141 145 204 201 190 177 161 149 132 136 127 120 122 137 137 137 131 127 122
81 101 109 110 114 105 85 78 74 72 63 69 74 86 84 84 91 105 106 94 96 95 99 119 132 140 169 152 132 119 114 109 109 111 114 126 136 140 146 156 166 176 176 167 170 180 189 198 204 206 200 193 181 180 180 174 171 166 180 190 198 88 65 108 244 197 165 170 162 185 178 201 190 201 184 168 162 151 143 136 151 147 146 149 147 137 129
155 123 119 113 108 110 96 80 75 67 67 69 65 60 56 70 81 82 74 67 52 63 94 109 139 150 151 147 132 122 119 115 116 114 114 133 147 159 164 175 171 163 161 163 171 178 188 194 199 193 181 187 178 182 179 178 180 187 196 192 194 178 173 187 206 215 192 173 186 193 188 186 183 196 189 181 177 163 163 152 151 159 159 156 155 153 141
194 142 130 128 139 88 86 73 60 65 53 57 52 46 44 50 57 58 56 57 65 63 58 53 54 58 97 120 121 112 107 108 102 102 115 139 171 185 188 182 181 173 158 168 180 183 191 192 186 177 181 177 190 191 192 185 191 202 199 198 209 196 158 188 249 186 207 205 198 205 191 197 184 194 191 192 190 202 168 164 157 165 167 167 162 159 156
76 333 302 309 330 343 10 81 64 71 63 52 49 45 43 36 38 41 41 45 54 51 42 34 36 30 29 80 85 88 111 114 111 114 135 156 167 184 189 187 179 179 176 179 196 196 192 189 177 175 177 178 192 199 204 203 203 214 212 217 215 202 198 185 200 229 212 218 209 210 222 205 204 204 195 194 197 205 190 188 168 161 160 173 162 162 153
95 135 262 269 323 2 23 66 48 39 53 62 64 62 48 37 29 32 22 24 37 40 43 41 35 44 58 61 77 88 88 103 109 117 118 132 159 186 196 186 175 192 190 187 206 205 189 186 200 197 188 192 194 206 201 215 205 208 204 217 227 225 208 207 202 215 225 214 215 203 212 218 212 210 208 208 203 200 198 207 178 180 168 171 166 156 153
42 55 52 20 356 346 28 36 46 56 62 69 65 55 51 37 28 21 19 20 27 33 39 58 86 86 77 75 87 89 103 105 110 115 120 119 164 191 195 192 216 210 210 197 201 183 202 204 208 262 254 211 207 217 219 217 216 219 203 213 211 222 215 213 214 216 226 230 215 217 207 202 216 217 214 214 211 209 206 203 196 197 187 172 172 170 155
63 56 44 38 14 3 36 34 47 58 65 62 57 59 53 48 42 33 18 18 22 29 23 26 56 65 73 76 81 86 86 88 87 98 103 126 142 193 194 201 196 184 247 221 238 232 187 214 191 190 226 225 225 224 222 232 240 222 208 224 221 222 210 209 204 212 204 213 223 213 222 212 210 208 212 218 217 212 215 208 204 207 199 183 173 179 177
49 57 60 50 45 29 355 28 46 62 72 73 69 60 58 60 55 51 45 36 29 23 26 40 60 78 91 85 75 71 74 71 80 88 100 124 178 188 176 176 183 193 190 79 150 167 188 147 180 207 227 229 228 233 203 177 229 241 229 230 232 225 222 222 205 209 211 202 208 214 209 214 219 216 212 216 218 208 210 212 207 210 211 194 181 186 185
56 48 51 54 56 65 34 332 40 54 56 70 69 64 60 59 60 60 57 48 41 36 46 52 61 73 71 82 88 77 68 70 67 81 93 91 90 204 97 91 83 43 94 82 217 189 178 222 232 220 219 227 236 254 199 165 200 233 244 240 235 242 235 233 227 213 219 210 206 213 215 217 222 225 219 215 220 220 219 225 215 208 215 207 200 195 196
67 60 45 46 49 33 352 20 65 63 64 55 67 70 63 61 59 61 63 60 52 44 45 51 59 70 68 70 76 89 76 73 68 86 98 118 109 142 126 92 92 92 90 162 251 302 22 290 265 248 238 226 215 221 217 174 188 229 235 239 241 240 243 245 240 229 214 216 211 209 227 219 221 225 224 221 215 219 219 211 227 222 223 217 210 206 205
83 70 53 49 47 67 219 353 55 68 70 75 80 75 64 62 66 66 64 66 61 53 52 51 59 59 55 59 63 66 61 46 44 46 34 4 39 257 194 37 51 28 359 356 336 339 294 267 268 253 241 236 241 274 255 163 204 223 229 238 241 242 241 234 240 241 234 220 222 218 221 225 216 222 224 221 222 215 215 218 212 217 222 225 215 210 210
78 75 69 53 58 322 317 41 60 72 75 79 84 84 78 73 68 68 67 67 69 67 66 60 45 54 68 68 71 65 61 58 54 46 35 12 18 349 360 55 31 36 8 306 237 228 248 243 274 305 321 325 290 111 276 268 239 235 237 236 244 240 241 235 235 240 245 244 235 230 224 227 230 225 221 227 223 222 221 218 215 214 217 223 225 218 214
63 61 51 46 26 257 74 76 78 80 81 77 77 82 82 78 77 77 70 61 57 63 64 66 67 63 59 66 67 68 62 59 59 69 78 69 57 55 45 24 10 24 343 304 330 313 328 2 359 3 18 2 348 5 312 262 251 251 246 247 245 245 253 255 240 236 240 241 239 241 241 238 236 236 234 230 230 229 228 225 226 223 222 222 222 222 223
78 62 48 42 47 64 85 96 96 92 85 78 72 73 74 70 66 69 69 64 60 52 51 55 54 56 52 47 51 55 49 38 37 36 118 124 109 68 34 10 354 13 35 353 331 329 26 8 21 10 14 8 358 343 313 279 273 264 267 266 264 261 253 250 246 243 241 244 245 245 244 245 247 250 247 243 240 236 231 232 232 230 229 228 229 227 225
37 28 33 34 46 57 69 79 77 77 75 76 71 66 67 71 70 70 73 70 64 56 48 46 45 43 46 45 44 41 43 40 33 12 1 20 51 35 19 349 358 358 4 335 358 32 38 28 23 12 5 356 345 318 304 314 311 310 298 286 278 272 270 268 266 258 251 251 253 256 262 262 256 253 256 258 259 257 250 237 235 237 236 234 232 231 228
34 41 49 51 69 70 66 71 77 76 85 87 86 78 73 75 74 70 66 68 67 65 61 56 49 39 28 23 29 45 65 61 53 45 42 32 30 23 25 17 12 4 2 12 39 28 31 27 24 15 10 359 318 296 3 347 329 310 309 306 308 322 315 309 304 297 287 272 269 266 259 255 256 254 257 260 259 262 260 267 268 256 248 244 238 235 232
1 60 66 71 81 73 73 68 59 64 83 86 83 82 73 71 71 71 70 70 71 72 67 62 55 48 42 34 25 15 19 41 80 54 35 33 29 29 38 33 21 11 8 37 48 44 33 29 21 13 7 8 3 20 14 359 358 350 345 346 334 326 319 317 316 301 301 320 322 312 310 306 295 292 295 288 274 264 264 262 254 254 257 256 255 249 245
45 62 80 77 83 90 80 86 106 83 75 71 76 81 77 75 73 74 74 75 74 73 70 64 58 53 41 35 39 35 22 5 18 54 24 13 8 9 21 26 19 356 350 87 94 83 60 40 27 13 12 22 31 30 23 19 13 11 4 6 3 2 351 358 359 357 349 336 320 288 280 283 286 287 284 272 266 272 273 272 268 261 257 254 251 250 252
55 54 70 87 90 88 81 79 90 89 77 77 77 78 75 74 73 72 71 69 67 70 74 69 55 45 47 47 34 34 32 28 22 22 23 21 19 13 16 20 24 14 0 15 7 18 41 29 30 13 357 20 33 26 24 16 16 14 14 11 7 6 20 8 360 351 339 333 322 316 317 313 311 307 297 295 294 287 282 274 271 264 263 265 264 246 219
74 127 104 75 70 54 41 145 96 77 99 98 94 90 74 87 92 65 46 44 38 27 35 39 33 32 23 22 28 34 29 31 33 18 26 32 28 28 18 20 21 20 18 6 7 2 11 11 19 15 6 11 18 22 20 9 4 12 9 6 6 355 18 2 337 330 333 333 339 334 327 317 313 319 315 305 305 306 309 311 307 306 328 315 282 281 278
90 97 94 90 80 73 60 50 55 60 65 65 63 59 65 63 63 50 39 21 29 23 23 39 40 22 12 20 16 24 23 24 35 31 23 25 21 29 26 11 20 21 12 8 11 7 7 12 14 10 9 9 13 14 14 5 358 7 11 7 3 350 351 351 352 351 352 345 325 317 316 313 310 307 308 305 304 298 296 293 292 288 285 284 283 276 273
81 82 85 80 77 74 75 79 75 77 75 66 74 87 73 73 88 79 64 16 4 39 11 14 29 27 20 21 23 27 31 29 23 23 28 25 19 14 22 21 19 20 18 18 20 23 21 18 17 18 17 16 14 12 13 13 14 14 13 12 5 355 359 356 359 354 342 335 329 328 324 326 325 315 304 300 300 299 295 291 286 281 278 279 281 280 278